[[{"header":{"parameterUnit":"m.s-1","parameterCategory":2,"la1":30.2992,"la2":30.254,"lo1":-89.0895,"lo2":-89.0443,"dy":0.0025,"dx":0.0025,"nx":19,"ny":19,"refTime":"2026-04-01T21:00:00:Z","depth":"0","parameterNumber":2,"parameterNumberName":"U-component_of_CURRENTS"},"data":[0,0,0,-0.1772,-0.1777,-0.1991,-0.1992,-0.2082,-0.2082,0,0,0,0,0,0,0,0,0,0,0,-0.1676,-0.1678,-0.1771,-0.1778,-0.1991,-0.1992,-0.2082,-0.2082,0,0,0,0,0,0,0,0,0,0,0,-0.1676,-0.1678,-0.1679,-0.1779,-0.1991,-0.1992,-0.2081,-0.1961,0,0,0,0,0,0,0,0,0,0,-0.1774,-0.1715,-0.1677,-0.168,-0.178,-0.1991,-0.1992,-0.1957,-0.1968,-0.1939,0,-0.1982,0,-0.205,-0.2086,-0.2086,0,0,0,-0.1757,-0.1705,-0.1776,-0.168,-0.1782,-0.1991,-0.1889,-0.1964,-0.1977,-0.1953,-0.1984,-0.199,-0.2052,-0.2086,-0.2087,-0.2098,-0.2097,0,0,-0.1745,-0.1698,-0.1768,-0.1785,-0.1847,-0.1882,-0.1896,-0.1974,-0.1978,-0.1985,-0.1993,-0.2053,-0.2087,-0.2087,-0.2098,-0.2098,0,0,0,-0.1725,-0.1689,-0.1762,-0.1778,-0.1842,-0.1889,-0.1904,-0.1975,-0.2003,-0.1995,-0.2054,-0.2087,-0.2088,-0.2098,-0.2098,-0.2061,0,0,0,-0.1717,-0.1681,-0.1756,-0.1728,-0.1842,-0.1937,-0.1902,-0.1997,-0.201,-0.2054,-0.2087,-0.2088,-0.2099,-0.2098,-0.2063,-0.2033,0,0,0,-0.1665,-0.1675,-0.1706,-0.1725,-0.1833,-0.1938,-0.1971,-0.2002,-0.2046,-0.2086,-0.2088,-0.2099,-0.2098,-0.2064,-0.2036,-0.1926,0,0,0,-0.16,-0.1709,-0.1705,-0.1831,-0.1831,-0.1969,-0.1972,-0.2061,-0.2099,-0.2087,-0.2099,-0.2098,-0.2065,-0.2038,-0.1929,-0.1806,-0.178,0,0,-0.1716,-0.1721,-0.1798,-0.1802,-0.1926,-0.1937,-0.2006,-0.2051,-0.2067,-0.2057,-0.2059,-0.2062,-0.2037,-0.1927,-0.1764,-0.174,0,0,0,-0.1822,-0.1853,-0.1899,-0.1959,-0.2038,-0.2022,-0.2074,-0.2058,-0.205,-0.2094,-0.2058,-0.2042,-0.1974,-0.1907,-0.1888,-0.1843,-0.2095,-0.2095,-0.2095,-0.1867,-0.1909,-0.1989,-0.2021,-0.2066,-0.2074,-0.2053,-0.2022,-0.2054,-0.2023,-0.201,-0.1898,-0.1829,-0.1813,-0.177,-0.2014,-0.2014,-0.2014,-0.2014,-0.196,-0.1979,-0.1984,-0.2073,-0.2032,-0.2052,-0.1999,-0.1983,-0.1896,-0.1954,-0.1888,-0.187,-0.1789,-0.1751,-0.2011,-0.2012,-0.2012,-0.2012,-0.2012,-0.194,-0.1945,-0.1995,-0.2014,-0.2002,-0.1993,-0.1886,-0.1873,-0.185,-0.1801,-0.168,-0.168,-0.1643,-0.1754,-0.1754,-0.1753,-0.1753,-0.1752,-0.1752,-0.1869,-0.1917,-0.19,-0.1936,-0.1904,-0.1856,-0.1798,-0.173,-0.1633,-0.1608,-0.1606,-0.1588,-0.1818,-0.1823,-0.1742,-0.1744,-0.1745,-0.1746,-0.1747,-0.1803,-0.1806,-0.1764,-0.1734,-0.1667,-0.1552,-0.1567,-0.1428,-0.1363,-0.1288,-0.1304,-0.148,-0.1461,-0.1477,-0.1473,-0.1306,-0.1306,-0.1306,-0.1306,-0.1699,-0.172,-0.1586,-0.149,-0.1401,-0.1379,-0.1181,-0.1132,-0.1087,-0.1045,-0.1101,-0.1154,-0.1174,-0.1144,-0.1167,-0.116,-0.0917,-0.0916,-0.0916,-0.1583,-0.1562,-0.1418,-0.1364,-0.1264,-0.1177,-0.0995,-0.0883,-0.0853,-0.0903,-0.106,-0.1077,-0.1167,-0.1201,-0.1173,-0.1208,-0.1205,0,0]},{"header":{"parameterUnit":"m.s-1","parameterCategory":2,"la1":30.2992,"la2":30.254,"lo1":-89.0895,"lo2":-89.0443,"dy":0.0025,"dx":0.0025,"nx":19,"ny":19,"refTime":"2026-04-01T21:00:00:Z","depth":"0","parameterNumber":3,"parameterNumberName":"V-component_of_CURRENTS"},"data":[0,0,0,-0.0291,-0.0291,-0.0201,-0.02,0.0007,0.0008,0,0,0,0,0,0,0,0,0,0,0,-0.0309,-0.0309,-0.0291,-0.029,-0.0201,-0.02,0.0006,0.0008,0,0,0,0,0,0,0,0,0,0,0,-0.0309,-0.0309,-0.0309,-0.029,-0.0201,-0.02,0.0006,-0.0075,0,0,0,0,0,0,0,0,0,0,-0.017,-0.0209,-0.0309,-0.0309,-0.029,-0.0201,-0.02,-0.0079,-0.007,-0.002,0,-0.0025,0,-0.0025,0.0021,0.0021,0,0,0,-0.0251,-0.0217,-0.0207,-0.0309,-0.029,-0.0201,-0.023,-0.0075,-0.0064,-0.0008,-0.0023,-0.0016,-0.0022,0.0022,0.0023,0.0151,0.0151,0,0,-0.0256,-0.0268,-0.0215,-0.0202,-0.0289,-0.0233,-0.0228,-0.0069,-0.0056,-0.0022,-0.0011,-0.0018,0.0023,0.0024,0.015,0.0151,0,0,0,-0.0297,-0.0272,-0.0267,-0.0209,-0.0212,-0.0232,-0.0225,-0.0062,-0.0066,-0.0009,-0.0016,0.0024,0.0026,0.015,0.015,0.0106,0,0,0,-0.0298,-0.0299,-0.027,-0.0272,-0.0217,-0.0149,-0.0222,-0.0076,-0.0059,-0.0017,0.0024,0.0028,0.015,0.015,0.0107,0.0084,0,0,0,-0.0309,-0.03,-0.03,-0.0274,-0.0257,-0.0152,-0.0144,-0.0072,-0.0064,0.0021,0.0029,0.015,0.015,0.0108,0.0086,0.0088,0,0,0,-0.0308,-0.0334,-0.03,-0.031,-0.0258,-0.021,-0.0145,-0.0085,-0.0019,0.0025,0.015,0.015,0.0108,0.0088,0.0089,0.0127,0.0126,0,0,-0.0348,-0.0339,-0.0342,-0.0311,-0.0292,-0.0218,-0.0161,-0.0053,0.0003,0.0112,0.0115,0.0106,0.0086,0.0088,0.0131,0.013,0,0,0,-0.0359,-0.0365,-0.0348,-0.0325,-0.0275,-0.0204,-0.011,-0.0055,0.0041,0.0033,0.0121,0.011,0.0112,0.0138,0.0137,0.0257,0.0151,0.0151,0.0151,-0.0423,-0.0391,-0.0386,-0.0338,-0.0291,-0.0183,-0.0116,-0.0022,0.0033,0.006,0.0083,0.0068,0.0095,0.0094,0.0218,0.0098,0.0098,0.0098,0.0097,-0.0485,-0.0485,-0.0414,-0.0407,-0.0315,-0.0253,-0.0108,-0.0057,0.0036,0.0068,0.0073,0.0102,0.009,0.0223,0.0095,0.0095,0.0096,0.0096,0.0096,-0.054,-0.0537,-0.0523,-0.0483,-0.0409,-0.0296,-0.0213,-0.0109,-0.0016,0.0002,0.0052,0.0053,0.0162,0.0006,0.0006,0.0006,0.0006,0.0006,0.0006,-0.0613,-0.0594,-0.0601,-0.0551,-0.0513,-0.0432,-0.0273,-0.0201,-0.0072,0.001,0.0011,0.018,0.0041,0.0035,0.0004,0.0005,0.0005,0.0005,0.0005,-0.0689,-0.0682,-0.0686,-0.0669,-0.0585,-0.0512,-0.0382,-0.0198,-0.0115,-0.0046,0.0189,0.0029,0.0052,0.0054,0.005,0.0025,0.0025,0.0025,0.0025,-0.0739,-0.0737,-0.0735,-0.0712,-0.0659,-0.0544,-0.0384,-0.0158,0.011,0.025,0.0264,0.0309,0.0303,0.0343,0.0339,0.0342,0.0392,0.0392,0.0393,-0.0775,-0.0765,-0.0769,-0.0741,-0.0683,-0.0569,-0.037,-0.0006,0.035,0.0419,0.0424,0.0409,0.0485,0.0466,0.0537,0.0522,0.053,0,0]}],[{"header":{"parameterUnit":"m.s-1","parameterCategory":2,"la1":30.2992,"la2":30.254,"lo1":-89.0895,"lo2":-89.0443,"dy":0.0025,"dx":0.0025,"nx":19,"ny":19,"refTime":"2026-04-01T21:00:00:Z","depth":"2","parameterNumber":2,"parameterNumberName":"U-component_of_CURRENTS"},"data":[0,0,0,-0.1467,-0.1471,-0.1642,-0.1642,-0.1744,-0.1745,0,0,0,0,0,0,0,0,0,0,0,-0.1391,-0.1392,-0.1467,-0.1472,-0.1642,-0.1642,-0.1744,-0.1745,0,0,0,0,0,0,0,0,0,0,0,-0.139,-0.1391,-0.1393,-0.1472,-0.1642,-0.1643,-0.1744,-0.1642,0,0,0,0,0,0,0,0,0,0,-0.149,-0.1441,-0.1391,-0.1393,-0.1473,-0.1642,-0.1643,-0.1638,-0.1648,-0.1636,0,-0.1662,0,-0.1715,-0.1749,-0.175,0,0,0,-0.1464,-0.1433,-0.1482,-0.1393,-0.1475,-0.1641,-0.1563,-0.1645,-0.1656,-0.1649,-0.1664,-0.1669,-0.1717,-0.175,-0.175,-0.178,-0.178,0,0,-0.1454,-0.1419,-0.1474,-0.1489,-0.1517,-0.1557,-0.1568,-0.1653,-0.1658,-0.1664,-0.1673,-0.1718,-0.175,-0.1751,-0.178,-0.178,0,0,0,-0.1433,-0.1412,-0.1461,-0.1483,-0.1529,-0.1563,-0.1575,-0.1655,-0.1672,-0.1674,-0.172,-0.1751,-0.1752,-0.178,-0.178,-0.1752,0,0,0,-0.1427,-0.14,-0.1456,-0.1436,-0.1528,-0.1612,-0.1574,-0.1666,-0.1678,-0.1719,-0.1751,-0.1752,-0.1781,-0.178,-0.1753,-0.1735,0,0,0,-0.1383,-0.1396,-0.1416,-0.1434,-0.1515,-0.1612,-0.1635,-0.167,-0.1705,-0.175,-0.1753,-0.1781,-0.178,-0.1754,-0.1737,-0.1637,0,0,0,-0.1341,-0.1406,-0.1415,-0.1499,-0.1513,-0.161,-0.1636,-0.1704,-0.1741,-0.1751,-0.1781,-0.178,-0.1755,-0.1738,-0.164,-0.1515,-0.1492,0,0,-0.1409,-0.1413,-0.1466,-0.1479,-0.157,-0.1586,-0.1649,-0.1704,-0.1723,-0.1744,-0.1746,-0.1753,-0.1737,-0.1638,-0.1485,-0.1463,0,0,0,-0.1479,-0.1494,-0.1527,-0.1581,-0.1644,-0.1646,-0.1706,-0.1698,-0.1716,-0.1747,-0.175,-0.1741,-0.1678,-0.1609,-0.1592,-0.1778,-0.1778,-0.1778,-0.1778,-0.1492,-0.1534,-0.1591,-0.1626,-0.1663,-0.169,-0.1683,-0.1674,-0.1714,-0.1697,-0.1716,-0.1621,-0.1549,-0.1534,-0.1717,-0.1717,-0.1717,-0.1717,-0.1717,-0.1548,-0.1562,-0.159,-0.1653,-0.1648,-0.1678,-0.1656,-0.1657,-0.1613,-0.1666,-0.1607,-0.1583,-0.1512,-0.1715,-0.1715,-0.1715,-0.1716,-0.1716,-0.1716,-0.1528,-0.153,-0.158,-0.1615,-0.1623,-0.1642,-0.1576,-0.1587,-0.1577,-0.1543,-0.1425,-0.1424,-0.1571,-0.1503,-0.1502,-0.1502,-0.1501,-0.1501,-0.1501,-0.1467,-0.1511,-0.1506,-0.1549,-0.1544,-0.1531,-0.1514,-0.1467,-0.1387,-0.1369,-0.1367,-0.1547,-0.1554,-0.1557,-0.1493,-0.1494,-0.1495,-0.1496,-0.1496,-0.1392,-0.1404,-0.1387,-0.138,-0.136,-0.1282,-0.1317,-0.1201,-0.1147,-0.1075,-0.1238,-0.1247,-0.1227,-0.1241,-0.1236,-0.1092,-0.1092,-0.1092,-0.1092,-0.1297,-0.1317,-0.1239,-0.1189,-0.114,-0.1139,-0.0969,-0.0908,-0.0914,-0.0902,-0.0911,-0.0954,-0.0974,-0.0944,-0.0965,-0.0957,-0.0739,-0.0739,-0.0738,-0.1199,-0.1193,-0.1096,-0.1077,-0.1026,-0.0962,-0.0798,-0.0645,-0.0607,-0.0729,-0.0901,-0.1058,-0.1148,-0.1169,-0.115,-0.1173,-0.117,0,0]},{"header":{"parameterUnit":"m.s-1","parameterCategory":2,"la1":30.2992,"la2":30.254,"lo1":-89.0895,"lo2":-89.0443,"dy":0.0025,"dx":0.0025,"nx":19,"ny":19,"refTime":"2026-04-01T21:00:00:Z","depth":"2","parameterNumber":3,"parameterNumberName":"V-component_of_CURRENTS"},"data":[0,0,0,-0.0365,-0.0365,-0.0322,-0.0322,-0.0144,-0.0143,0,0,0,0,0,0,0,0,0,0,0,-0.0367,-0.0367,-0.0365,-0.0365,-0.0322,-0.0322,-0.0144,-0.0143,0,0,0,0,0,0,0,0,0,0,0,-0.0367,-0.0367,-0.0368,-0.0365,-0.0322,-0.0322,-0.0145,-0.0199,0,0,0,0,0,0,0,0,0,0,-0.0253,-0.028,-0.0367,-0.0368,-0.0365,-0.0323,-0.0321,-0.0203,-0.0196,-0.014,0,-0.0151,0,-0.0161,-0.0131,-0.0131,0,0,0,-0.033,-0.0287,-0.0288,-0.0368,-0.0366,-0.0323,-0.0332,-0.02,-0.0192,-0.013,-0.0149,-0.0143,-0.0158,-0.013,-0.0129,-0.0016,-0.0016,0,0,-0.0333,-0.0337,-0.0295,-0.0284,-0.0375,-0.0334,-0.0331,-0.0196,-0.0185,-0.0148,-0.014,-0.0155,-0.0129,-0.0128,-0.0016,-0.0016,0,0,0,-0.0363,-0.0339,-0.0345,-0.029,-0.0303,-0.0333,-0.033,-0.019,-0.0197,-0.0138,-0.0153,-0.0128,-0.0126,-0.0016,-0.0016,-0.0053,0,0,0,-0.0363,-0.0359,-0.0346,-0.0345,-0.0307,-0.0263,-0.0327,-0.0206,-0.0192,-0.0154,-0.0128,-0.0124,-0.0016,-0.0016,-0.0052,-0.0066,0,0,0,-0.0366,-0.0359,-0.0364,-0.0346,-0.0347,-0.0266,-0.0263,-0.0203,-0.0202,-0.013,-0.0124,-0.0016,-0.0016,-0.0051,-0.0065,-0.0047,0,0,0,-0.0355,-0.0399,-0.0364,-0.04,-0.0348,-0.0338,-0.0265,-0.0233,-0.0181,-0.0127,-0.0016,-0.0016,-0.0051,-0.0064,-0.0046,0.0001,0.0002,0,0,-0.0415,-0.0406,-0.0427,-0.0397,-0.041,-0.0341,-0.0308,-0.0211,-0.0157,-0.0045,-0.0043,-0.0052,-0.0065,-0.0047,-0.0005,-0.0003,0,0,0,-0.0449,-0.0465,-0.0462,-0.0454,-0.0425,-0.0359,-0.0277,-0.0224,-0.0129,-0.0135,-0.0044,-0.005,-0.0038,-0.0008,-0.0007,-0.0016,-0.0016,-0.0016,-0.0016,-0.0522,-0.0503,-0.052,-0.0485,-0.0456,-0.0358,-0.0295,-0.0199,-0.0147,-0.0117,-0.0075,-0.0079,-0.0048,-0.0046,-0.0068,-0.0068,-0.0068,-0.0068,-0.0068,-0.06,-0.0609,-0.0547,-0.0564,-0.0472,-0.0422,-0.0281,-0.0226,-0.0117,-0.0095,-0.0081,-0.0042,-0.0048,-0.0071,-0.0071,-0.007,-0.007,-0.007,-0.007,-0.0651,-0.0652,-0.0648,-0.062,-0.0553,-0.0448,-0.0353,-0.025,-0.0157,-0.0129,-0.0067,-0.0065,-0.0093,-0.0117,-0.0117,-0.0117,-0.0117,-0.0117,-0.0117,-0.0706,-0.0698,-0.0706,-0.0672,-0.0634,-0.055,-0.039,-0.0306,-0.0173,-0.0096,-0.0095,-0.0094,-0.0093,-0.0094,-0.0117,-0.0117,-0.0117,-0.0117,-0.0117,-0.0779,-0.077,-0.0777,-0.0758,-0.0671,-0.0589,-0.0458,-0.0263,-0.0174,-0.0101,-0.0061,-0.0062,-0.0038,-0.0038,-0.0037,-0.0043,-0.0043,-0.0043,-0.0043,-0.0817,-0.0818,-0.0807,-0.0775,-0.0712,-0.0598,-0.0424,-0.0211,-0.0055,0.0013,0.0011,0.0022,0.0018,0.0047,0.0045,0.0048,0.0064,0.0064,0.0064,-0.0842,-0.0832,-0.0825,-0.0794,-0.0721,-0.06,-0.0401,-0.0095,0.0102,0.0066,0.001,-0.0032,-0.0021,-0.0025,0.0014,0.0013,0.0017,0,0]}],[{"header":{"parameterUnit":"m.s-1","parameterCategory":2,"la1":30.2992,"la2":30.254,"lo1":-89.0895,"lo2":-89.0443,"dy":0.0025,"dx":0.0025,"nx":19,"ny":19,"refTime":"2026-04-01T21:00:00:Z","depth":"4","parameterNumber":2,"parameterNumberName":"U-component_of_CURRENTS"},"data":[0,0,0,-0.0838,-0.0838,-0.0859,-0.0859,-0.0914,-0.0914,0,0,0,0,0,0,0,0,0,0,0,-0.0838,-0.0838,-0.0838,-0.0838,-0.0859,-0.0859,-0.0914,-0.0914,0,0,0,0,0,0,0,0,0,0,0,-0.0838,-0.0838,-0.0838,-0.0838,-0.0859,-0.0859,-0.0913,-0.0892,0,0,0,0,0,0,0,0,0,0,-0.087,-0.0859,-0.0838,-0.0838,-0.0838,-0.0858,-0.0859,-0.0891,-0.0894,-0.0911,0,-0.0915,0,-0.0911,-0.0918,-0.0918,0,0,0,-0.0844,-0.0857,-0.0864,-0.0838,-0.0839,-0.0858,-0.0851,-0.0892,-0.0895,-0.0914,-0.0915,-0.0917,-0.0912,-0.0918,-0.0919,-0.0945,-0.0945,0,0,-0.0843,-0.0841,-0.0862,-0.0866,-0.0846,-0.085,-0.0852,-0.0894,-0.0898,-0.0916,-0.0918,-0.0913,-0.0919,-0.0919,-0.0945,-0.0945,0,0,0,-0.0836,-0.084,-0.0846,-0.0864,-0.0863,-0.0851,-0.0852,-0.0896,-0.0898,-0.0919,-0.0914,-0.0919,-0.092,-0.0945,-0.0945,-0.0949,0,0,0,-0.0836,-0.0835,-0.0845,-0.0844,-0.0862,-0.0874,-0.0853,-0.0896,-0.09,-0.0913,-0.0919,-0.092,-0.0945,-0.0945,-0.095,-0.0931,0,0,0,-0.0836,-0.0835,-0.0838,-0.0843,-0.0849,-0.0873,-0.0878,-0.0896,-0.0897,-0.0918,-0.092,-0.0945,-0.0945,-0.095,-0.0932,-0.0941,0,0,0,-0.0832,-0.0825,-0.0838,-0.083,-0.0848,-0.0857,-0.0878,-0.0894,-0.0912,-0.0919,-0.0945,-0.0945,-0.095,-0.0932,-0.0941,-0.0841,0,0,0,-0.0817,-0.0823,-0.0818,-0.0829,-0.0831,-0.0855,-0.0871,-0.0906,-0.0912,-0.0935,-0.0935,-0.0949,-0.0932,-0.0941,-0.0823,0,0,0,0,-0.0808,-0.0807,-0.0809,-0.0815,-0.0829,-0.0846,-0.0889,-0.0894,-0.0914,-0.0919,-0.0942,-0.0929,-0.0936,-0.0878,-0.0943,-0.0943,-0.0943,-0.0943,-0.0943,-0.0782,-0.0791,-0.0784,-0.0805,-0.0817,-0.0853,-0.0857,-0.0872,-0.0915,-0.0915,-0.0929,-0.0927,-0.0865,-0.0934,-0.0934,-0.0934,-0.0934,-0.0934,-0.0934,-0.0743,-0.0719,-0.076,-0.0762,-0.0796,-0.0821,-0.0843,-0.0868,-0.0892,-0.0909,-0.0917,-0.0879,-0.0934,-0.0934,-0.0934,-0.0934,-0.0934,-0.0934,-0.0934,-0.0686,-0.0674,-0.0706,-0.0721,-0.0751,-0.0806,-0.082,-0.0861,-0.0876,-0.0881,-0.0857,-0.0925,-0.0931,-0.0923,-0.0923,-0.0923,-0.0923,-0.0923,-0.0923,-0.0598,-0.0626,-0.0635,-0.0675,-0.0708,-0.0759,-0.0823,-0.0837,-0.0881,-0.0831,-0.0908,-0.0924,-0.0924,-0.093,-0.0922,-0.0923,-0.0923,-0.0923,-0.0923,-0.0477,-0.0522,-0.0528,-0.0568,-0.0653,-0.0697,-0.0788,-0.0793,-0.0797,-0.0761,-0.0797,-0.0803,-0.079,-0.0794,-0.0795,-0.0747,-0.0746,-0.0744,0,-0.0394,-0.0415,-0.0443,-0.0497,-0.0559,-0.0656,-0.0661,-0.0695,-0.0702,-0.0675,-0.0792,-0.0833,-0.0836,-0.0824,-0.0825,-0.0826,0,0,0,-0.0309,-0.0345,-0.0345,-0.0435,-0.0521,-0.058,-0.0659,-0.0635,-0.0706,-0.067,-0.0711,-0.072,-0.0861,-0.0921,-0.0916,-0.0917,-0.0926,0,0]},{"header":{"parameterUnit":"m.s-1","parameterCategory":2,"la1":30.2992,"la2":30.254,"lo1":-89.0895,"lo2":-89.0443,"dy":0.0025,"dx":0.0025,"nx":19,"ny":19,"refTime":"2026-04-01T21:00:00:Z","depth":"4","parameterNumber":3,"parameterNumberName":"V-component_of_CURRENTS"},"data":[0,0,0,-0.0331,-0.0333,-0.0395,-0.0395,-0.036,-0.036,0,0,0,0,0,0,0,0,0,0,0,-0.0304,-0.0305,-0.0331,-0.0333,-0.0395,-0.0395,-0.036,-0.036,0,0,0,0,0,0,0,0,0,0,0,-0.0304,-0.0305,-0.0305,-0.0333,-0.0395,-0.0395,-0.0361,-0.0339,0,0,0,0,0,0,0,0,0,0,-0.0292,-0.0287,-0.0305,-0.0305,-0.0334,-0.0395,-0.0395,-0.0339,-0.0341,-0.0303,0,-0.0322,0,-0.0345,-0.0356,-0.0356,0,0,0,-0.0322,-0.0286,-0.0307,-0.0306,-0.0334,-0.0395,-0.0364,-0.0341,-0.0342,-0.0304,-0.0322,-0.0321,-0.0344,-0.0356,-0.0355,-0.0345,-0.0345,0,0,-0.0318,-0.0307,-0.0306,-0.0308,-0.036,-0.0362,-0.0366,-0.0343,-0.0342,-0.0322,-0.0321,-0.0343,-0.0355,-0.0355,-0.0345,-0.0345,0,0,0,-0.0316,-0.0304,-0.0328,-0.0308,-0.0332,-0.0364,-0.0369,-0.0343,-0.0353,-0.0321,-0.0343,-0.0355,-0.0354,-0.0344,-0.0345,-0.0361,0,0,0,-0.0313,-0.0304,-0.0326,-0.0319,-0.0333,-0.0354,-0.037,-0.0355,-0.0353,-0.0343,-0.0355,-0.0354,-0.0344,-0.0344,-0.0359,-0.0356,0,0,0,-0.03,-0.0303,-0.0314,-0.0318,-0.0352,-0.0356,-0.0364,-0.0355,-0.0366,-0.0356,-0.0353,-0.0344,-0.0344,-0.0358,-0.0355,-0.028,0,0,0,-0.0279,-0.0335,-0.0314,-0.0376,-0.0352,-0.0407,-0.0365,-0.0396,-0.0395,-0.0355,-0.0344,-0.0345,-0.0358,-0.0354,-0.0281,-0.0253,0,0,0,-0.0346,-0.0342,-0.0381,-0.0365,-0.0431,-0.0397,-0.0434,-0.0413,-0.0388,-0.034,-0.0341,-0.036,-0.0355,-0.028,-0.03,0,0,0,0,-0.04,-0.0424,-0.0442,-0.0469,-0.0488,-0.0471,-0.046,-0.0436,-0.0404,-0.0393,-0.0371,-0.0367,-0.0319,-0.0307,-0.0348,-0.0348,-0.0348,-0.0348,-0.0348,-0.0462,-0.0474,-0.0524,-0.0532,-0.0545,-0.0522,-0.0499,-0.0456,-0.0435,-0.0425,-0.0389,-0.0358,-0.035,-0.0405,-0.0405,-0.0405,-0.0405,-0.0405,-0.0405,-0.0543,-0.0563,-0.0555,-0.061,-0.0574,-0.0582,-0.0515,-0.0487,-0.0403,-0.0415,-0.0367,-0.0339,-0.0407,-0.0407,-0.0406,-0.0406,-0.0406,-0.0406,-0.0406,-0.0568,-0.0576,-0.0608,-0.0637,-0.0628,-0.0597,-0.0524,-0.0473,-0.0412,-0.0372,-0.0295,-0.034,-0.0323,-0.0325,-0.0325,-0.0324,-0.0324,-0.0324,-0.0324,-0.057,-0.0599,-0.0627,-0.0654,-0.0651,-0.0611,-0.0511,-0.0434,-0.0359,-0.0297,-0.0351,-0.0329,-0.0332,-0.0317,-0.0319,-0.032,-0.032,-0.0321,-0.0321,-0.0588,-0.0599,-0.0635,-0.0646,-0.0627,-0.0584,-0.0507,-0.034,-0.0235,-0.016,-0.0233,-0.0239,-0.021,-0.0214,-0.0195,-0.016,-0.0159,-0.0159,0,-0.0578,-0.0593,-0.062,-0.0621,-0.0585,-0.0553,-0.0401,-0.0303,-0.0212,-0.0221,-0.0247,-0.0337,-0.0339,-0.0317,-0.032,-0.0303,0,0,0,-0.0565,-0.0577,-0.0583,-0.0604,-0.0564,-0.043,-0.0354,-0.029,-0.025,-0.0129,-0.0148,-0.0151,-0.0274,-0.0304,-0.0271,-0.0275,-0.0248,0,0]}]]